Overview Statistics Trail Chart Weather Telemetry Raw packets
 

This is the latest recevied weather packets stored in our database for station/object K4IR. If no packets are shown the sender has not sent any weather packets the latest 10 day(s).

<< 48 49 50 51 52 53 54 >>
Time Temp. Humidity Pressure Rain* Wind** Luminosity Snow
1787889507 23.33° C 99% 1016.2 hPa 0 mm - 0 W/m² -
1787888902 23.33° C 98% 1015.9 hPa 0 mm - 0 W/m² -
1787888298 23.33° C 98% 1016.2 hPa 0 mm - 0 W/m² -
1787887695 23.33° C 98% 1016.2 hPa 0 mm - 0 W/m² -
1787887090 23.89° C 98% 1016.3 hPa 0 mm - 0 W/m² -
1787886491 23.89° C 98% 1016.3 hPa 0 mm - 0 W/m² -
1787885891 23.89° C 98% 1016.8 hPa 0 mm - 0 W/m² -
1787885288 23.89° C 98% 1016.7 hPa 0 mm - 0 W/m² -
1787884684 23.89° C 97% 1016.8 hPa 0 mm - 0 W/m² -
1787884080 23.89° C 97% 1016.6 hPa 0 mm - 0 W/m² -
1787883478 24.44° C 96% 1016.7 hPa 8.89 mm - 0 W/m² -
1787882878 25.56° C 95% 1016.8 hPa 22.86 mm - 0 W/m² -
1787882276 25.56° C 94% 1016.6 hPa 0 mm - 0 W/m² -
1787881670 25.56° C 93% 1016.7 hPa 0 mm - 0 W/m² -
1787881067 25.56° C 93% 1016.7 hPa 0 mm - 0 W/m² -
1787880467 25.56° C 94% 1016.4 hPa 0 mm - 0 W/m² -
1787879862 25° C 95% 1016.5 hPa 0 mm - 0 W/m² -
1787879259 25° C 96% 1015.9 hPa 0 mm - 0 W/m² -
1787878655 25° C 96% 1015.9 hPa 0 mm - 0 W/m² -
1787878052 25° C 96% 1016 hPa 0 mm - 0 W/m² -
1787877448 25° C 96% 1015.7 hPa 0 mm - 0 W/m² -
1787876843 25° C 96% 1015.5 hPa 0 mm - 0 W/m² -
1787876243 25° C 96% 1015.7 hPa 0 mm - 0 W/m² -
1787875639 25° C 96% 1015.8 hPa 0 mm - 0 W/m² -
1787875036 25.56° C 95% 1015.7 hPa 0 mm - 0 W/m² -

* Rain latest hour (hover to see other rain measurements)
** Current wind speed in m/s (hover to see current wind gust speed)